Wind_Speed
22 22 21 21 23 25 25 24 25 27 27 26 24 23 21 15 12 13 22 32 35 33 31 29 27 25 26 28 30 41 46 37 32 32 32 33 33 35 36 36 36 36 37 39 42 43 42 40 39 35 32 32 33 32 31 30 30 29 30 29 28 28 29 29 29 29 28 27 26 26 25 25 25 26 26 27 28 27 27 27 28 28 28 29 29 30
21 21 20 22 24 25 25 26 27 25 23 23 24 25 26 25 22 20 27 36 38 35 33 32 32 29 28 30 30 36 45 44 35 31 32 32 33 34 36 36 35 36 36 37 40 42 43 42 39 34 31 31 31 30 30 30 30 30 29 29 28 28 28 28 28 28 28 27 27 26 25 24 25 26 26 27 27 27 27 27 27 27 28 28 29 30
21 21 22 25 24 23 26 26 24 24 21 22 25 27 29 29 28 26 29 35 38 39 36 33 33 32 28 28 31 34 40 44 39 31 29 30 32 34 34 34 35 36 36 37 38 39 41 42 39 34 30 30 30 29 29 29 30 30 29 28 28 27 27 27 27 27 27 27 26 26 25 24 24 25 25 26 27 27 26 26 26 27 27 28 28 29
21 22 24 26 24 23 27 26 24 24 22 22 25 28 29 28 26 23 27 36 41 38 34 32 33 32 30 29 32 34 36 38 38 33 29 28 30 33 33 32 34 34 34 35 36 37 40 41 38 34 30 30 30 29 29 30 30 30 28 28 27 27 27 27 27 27 27 26 26 26 25 24 24 24 25 25 25 26 26 26 25 26 26 27 27 27
22 24 25 23 22 24 26 26 25 24 23 24 26 28 29 28 27 25 29 40 41 34 30 32 35 32 29 31 33 34 34 35 35 34 31 28 28 30 31 31 32 32 32 33 33 35 38 37 37 34 30 30 31 29 29 30 30 29 28 28 27 27 26 27 27 26 27 26 26 26 26 25 25 24 24 25 25 25 26 25 25 25 26 27 27 27
23 29 26 22 26 27 26 26 27 27 27 28 28 30 31 30 32 33 37 42 39 33 32 34 35 32 29 32 34 33 33 33 32 31 30 29 28 28 28 28 29 29 30 31 31 34 36 34 35 34 30 30 31 30 30 29 30 30 29 28 28 26 26 27 27 26 26 26 26 26 25 25 25 25 25 25 25 25 26 26 26 26 26 27 27 27
22 30 28 25 30 30 27 29 29 30 31 31 31 32 32 33 36 36 35 38 34 30 34 36 34 31 29 30 30 30 31 31 29 27 26 27 27 27 26 26 27 28 29 29 30 33 33 33 33 33 31 30 30 31 30 30 30 30 29 28 28 27 26 26 26 26 26 26 26 26 25 25 25 25 25 25 26 26 26 27 27 27 28 28 28 27
22 30 28 25 29 30 29 29 28 30 30 29 29 28 28 30 32 30 27 29 28 25 31 34 30 29 27 25 24 26 29 31 28 24 23 24 26 26 26 26 26 27 28 29 30 32 34 33 32 32 32 30 31 31 30 30 30 30 28 28 28 27 26 26 26 26 25 25 25 25 25 25 25 25 26 26 26 26 27 28 28 28 29 29 30 29
25 28 26 22 23 24 23 23 24 25 24 23 24 23 21 22 24 23 21 22 22 22 27 27 24 26 24 20 20 20 22 26 27 27 25 24 24 25 25 26 27 27 28 28 29 31 34 35 32 32 32 31 31 31 30 30 30 30 29 28 29 28 27 27 26 26 25 25 25 25 25 26 26 26 26 26 27 27 28 28 28 29 29 30 30 30
22 24 22 19 19 19 18 18 19 20 19 19 19 18 18 18 18 18 18 19 20 23 26 20 18 23 23 19 16 17 22 23 25 29 27 22 21 22 23 24 27 28 28 29 29 29 33 35 34 31 31 32 32 30 30 31 31 30 29 29 29 28 26 26 26 26 26 26 26 27 27 27 27 27 27 27 27 28 28 28 28 29 29 29 30 31
19 22 21 19 19 19 18 16 14 16 18 17 17 16 18 19 18 18 18 19 22 25 22 16 15 19 23 21 11 11 22 25 24 27 27 24 22 21 21 21 23 26 28 29 29 29 31 33 33 31 30 31 31 30 30 30 30 30 29 29 29 28 26 26 27 27 27 28 28 28 28 28 28 28 28 27 28 28 28 28 28 28 29 29 30 30
21 23 22 20 20 19 19 17 15 17 18 18 18 18 18 18 18 20 20 20 24 24 17 14 16 19 23 21 9 11 18 22 22 23 23 26 28 25 23 21 20 22 25 27 28 28 29 30 30 29 28 29 30 30 30 30 29 29 29 29 29 28 27 26 27 28 27 28 28 28 29 29 28 28 28 28 28 28 29 29 29 29 29 30 30 30
20 21 19 19 19 19 19 18 19 19 19 18 18 18 18 16 15 18 20 22 25 23 16 14 16 19 23 19 11 15 17 16 17 20 20 22 29 31 28 25 24 24 25 28 28 28 29 28 27 26 26 29 30 29 30 30 29 30 30 29 29 29 28 27 27 28 28 28 28 28 29 29 29 29 29 29 29 29 30 30 31 31 31 31 31 31
16 15 16 17 17 19 18 16 17 16 17 18 17 17 18 16 15 18 19 19 20 20 18 17 19 21 22 20 16 18 20 16 15 19 22 22 26 33 34 31 30 30 30 31 31 32 32 30 26 25 26 29 30 29 30 30 30 31 30 30 30 30 29 28 27 28 28 28 28 28 29 29 29 30 30 31 30 31 31 32 33 33 34 34 34 33
17 16 15 15 15 18 18 15 13 11 13 16 17 17 19 17 17 19 20 19 19 21 21 20 23 23 22 21 19 18 20 19 15 17 24 29 31 34 35 35 34 34 34 34 32 33 35 34 31 27 27 30 30 29 30 30 30 31 31 31 32 31 30 28 28 29 30 29 29 29 30 30 30 31 32 32 32 32 33 33 34 35 36 36 36 36
20 18 15 14 14 18 21 19 18 17 17 16 15 19 22 21 20 22 24 24 25 28 29 28 29 28 27 27 25 25 26 26 24 22 23 29 36 37 34 33 32 31 31 32 32 31 32 36 37 32 29 30 31 31 31 31 31 31 32 32 32 32 30 29 29 31 31 31 31 31 32 32 32 33 33 34 34 34 35 35 36 36 37 38 38 38
21 20 18 18 17 18 23 23 21 21 20 17 18 20 21 21 23 25 27 29 29 31 31 30 30 30 31 33 32 31 32 32 33 31 26 26 31 33 30 27 25 24 25 27 30 29 28 32 36 35 32 30 31 32 32 32 32 32 33 33 34 33 32 30 31 32 33 33 33 33 33 33 33 34 35 36 36 36 37 37 38 38 38 39 39 39
27 26 24 24 22 22 25 28 26 24 25 24 22 21 20 22 25 26 27 29 30 33 33 31 31 32 31 31 31 30 30 29 27 25 24 23 23 24 24 25 25 24 24 24 27 28 28 30 34 35 33 31 32 33 33 34 34 34 35 36 36 36 35 33 33 34 34 34 34 34 35 35 36 36 37 38 38 39 39 40 40 41 41 41 40 40
30 30 29 29 28 27 28 30 29 26 26 27 24 24 26 29 30 29 29 31 32 35 36 35 35 35 33 31 30 28 26 26 24 19 20 22 22 22 22 24 27 26 24 24 25 26 27 27 31 34 33 32 33 34 36 38 36 35 37 38 37 38 38 36 35 36 36 36 36 36 37 38 38 39 40 40 41 41 42 42 42 42 43 43 42 42
30 31 31 30 29 30 31 32 32 29 27 28 28 30 31 32 33 32 31 33 34 36 38 39 39 37 35 33 33 31 27 26 26 23 23 25 26 25 24 24 26 26 24 25 25 24 25 26 30 34 33 32 33 35 37 39 37 36 39 39 38 39 39 38 37 37 38 39 39 38 38 39 40 40 41 41 42 43 43 44 44 44 44 44 44 44
33 34 36 34 32 33 33 33 34 34 34 34 33 34 34 34 34 33 33 34 35 36 37 38 39 37 33 33 34 33 30 29 29 28 27 27 27 28 28 28 30 28 27 28 29 28 27 28 31 34 34 34 34 35 36 36 36 37 39 39 38 39 39 38 36 37 38 39 39 38 39 40 40 41 41 42 43 44 45 45 46 46 46 46 46 46
35 36 37 36 35 35 34 34 35 35 35 34 34 35 35 35 35 33 34 34 32 33 33 35 39 36 32 33 34 33 32 32 33 33 30 26 25 26 27 29 32 31 31 32 33 31 30 32 34 35 34 33 34 36 36 34 35 37 37 37 38 38 37 36 35 36 37 38 38 39 39 40 41 42 43 43 45 46 47 47 47 48 48 48 48 48
37 36 37 37 36 36 35 34 34 36 36 36 37 38 36 35 35 34 36 36 35 36 36 38 42 37 31 34 38 38 39 38 38 39 35 31 31 30 29 31 32 32 33 36 36 34 33 34 35 34 33 33 36 39 38 35 34 34 34 34 34 34 35 35 35 36 38 38 39 40 40 41 42 43 44 45 46 47 47 48 49 49 49 49 48 49
39 37 38 40 40 40 38 36 36 36 36 37 38 39 39 39 39 40 41 41 41 42 41 42 44 40 35 38 41 41 42 42 41 41 41 40 41 40 39 39 38 36 36 37 37 37 37 36 34 34 35 36 39 41 38 34 34 35 35 34 34 34 35 35 36 37 38 39 39 40 41 42 43 44 45 45 46 46 47 47 48 48 48 48 48 48
39 37 38 40 41 41 39 36 35 31 31 35 37 38 40 41 41 42 42 41 43 44 42 42 45 43 40 41 42 43 44 43 42 42 43 44 46 47 46 45 43 41 41 40 40 41 40 37 36 37 39 39 39 40 36 32 35 37 37 36 36 36 36 36 36 37 38 39 40 40 41 42 43 44 44 44 45 45 46 46 46 47 47 48 48 49
39 39 40 41 42 42 40 37 35 32 33 38 40 41 41 41 39 39 39 39 41 42 42 44 46 45 42 42 43 44 45 45 44 43 45 46 48 49 50 49 46 45 46 46 46 45 42 39 38 40 41 38 37 40 37 35 37 38 37 37 37 38 37 37 38 38 39 40 40 39 40 42 43 43 43 43 43 44 44 45 46 46 47 48 49 49
41 41 42 43 44 43 41 40 40 40 41 43 43 44 45 44 43 42 43 44 44 45 48 48 48 48 47 46 46 45 46 47 48 48 49 50 50 50 51 53 52 51 51 48 47 47 46 45 43 41 40 38 38 40 39 37 38 38 37 39 40 39 39 39 40 40 41 41 39 39 39 40 41 41 41 41 41 41 42 43 44 46 47 49 49 49
43 42 42 43 44 44 43 43 43 43 45 45 45 46 46 45 45 46 48 49 48 50 52 50 49 50 49 47 47 47 47 49 51 52 53 53 52 52 53 55 56 57 55 51 49 49 49 50 49 47 45 43 40 41 42 42 41 38 35 37 39 39 40 40 40 40 40 39 38 38 38 38 38 38 38 39 40 40 41 43 44 46 48 49 50 50
44 41 41 42 43 44 44 44 44 45 47 47 47 47 46 45 46 47 49 50 50 52 54 52 52 53 51 50 50 49 50 52 53 54 55 55 54 55 57 58 59 60 59 57 56 55 53 52 52 52 51 45 40 42 45 48 48 44 39 39 41 41 41 40 40 40 39 38 37 37 37 37 37 38 39 40 41 42 43 44 46 47 49 50 50 50
46 43 42 44 44 44 44 45 45 46 47 47 47 47 46 47 48 50 51 51 50 52 51 51 53 54 52 50 51 50 51 53 55 55 56 56 56 57 57 58 59 60 61 62 60 59 58 56 54 53 52 47 44 45 48 50 51 48 44 44 44 42 41 41 41 40 38 38 37 38 38 39 39 39 40 40 41 42 44 45 46 47 48 49 49 49
45 44 44 45 46 44 43 44 45 45 45 46 46 47 47 48 49 50 50 48 49 50 51 51 54 55 51 48 49 50 51 53 54 55 57 58 58 58 59 59 58 58 60 62 62 62 61 60 58 56 52 49 48 46 48 51 50 45 43 44 42 39 39 40 40 39 39 38 39 39 40 40 40 40 40 41 42 43 43 44 45 46 47 47 47 47
43 44 44 46 48 45 43 44 45 44 45 47 48 48 48 48 48 47 47 47 48 50 51 52 54 53 50 49 50 51 51 52 54 55 57 57 56 57 58 58 59 59 58 59 61 62 60 58 60 59 55 52 49 47 49 52 50 44 41 41 38 36 37 38 39 39 40 39 40 40 40 41 41 41 41 42 42 43 44 45 46 46 47 47 46 46
42 44 43 45 48 46 44 45 44 45 48 50 48 47 46 46 47 47 47 48 48 48 50 52 52 51 50 49 49 48 48 48 50 51 52 51 50 52 53 54 56 56 55 55 57 59 59 59 60 61 58 55 51 49 50 53 53 48 41 36 35 36 36 37 38 39 40 40 40 40 40 41 41 41 42 43 43 44 45 46 47 47 47 47 46 46
42 43 43 45 47 46 44 43 43 46 51 49 44 44 45 45 46 48 48 48 48 48 49 50 49 48 47 45 44 45 45 44 45 46 46 45 47 49 49 49 51 51 52 53 52 54 58 59 60 61 60 58 55 52 51 53 55 53 42 33 33 35 36 36 38 39 40 40 40 40 41 42 42 42 43 44 45 46 47 48 48 47 47 47 46 46
41 42 42 43 45 45 44 42 44 49 51 46 43 45 45 44 44 46 46 46 47 47 47 47 45 42 42 43 44 45 46 46 45 45 45 46 48 50 50 50 50 51 53 53 52 53 54 55 58 60 60 60 59 56 55 56 56 55 46 36 34 36 36 37 38 39 39 39 39 40 42 42 42 43 44 46 47 48 49 49 49 48 48 47 47 48
40 41 42 42 42 43 42 42 44 49 49 46 46 45 43 42 43 44 45 44 44 44 43 43 42 41 42 44 46 48 50 50 48 46 47 48 51 53 55 52 49 49 51 51 51 52 51 51 54 55 55 58 60 58 60 61 58 54 50 44 42 41 39 39 39 39 39 39 39 40 42 43 43 44 46 47 48 49 49 49 49 49 48 48 48 49
40 41 41 40 39 38 37 39 41 46 48 46 43 41 40 42 43 43 44 44 42 42 43 43 44 46 47 48 49 49 51 52 49 46 47 50 52 51 50 48 46 46 48 48 48 49 49 49 50 49 49 54 59 61 62 61 57 55 54 51 49 46 42 41 40 39 39 39 39 40 42 43 45 46 47 48 49 49 49 49 49 48 48 48 49 50
39 42 39 36 34 32 33 37 40 44 46 43 39 40 42 44 44 44 45 45 43 43 46 48 48 49 49 49 49 48 49 49 46 43 44 47 47 43 40 40 42 44 44 44 45 46 47 46 45 45 46 49 56 61 59 55 53 55 54 51 47 44 42 41 40 40 40 39 39 40 42 44 45 47 48 48 49 49 49 48 48 48 48 49 50 50
32 36 34 34 36 35 35 39 41 43 44 40 39 42 43 43 45 45 46 47 45 46 50 52 51 50 48 46 44 44 45 45 42 40 41 42 41 40 38 38 40 42 41 41 41 41 42 42 41 42 46 50 53 53 51 50 51 50 47 44 42 41 41 40 40 40 39 38 39 41 42 44 46 47 48 48 48 48 48 49 49 49 50 50 51 51
31 32 33 36 39 37 36 38 39 41 42 40 40 44 45 43 44 45 46 47 47 47 49 48 46 46 46 45 43 41 42 43 42 41 42 42 40 40 39 38 39 40 39 39 37 36 38 42 40 40 44 49 49 47 47 49 48 43 39 39 40 41 41 40 40 40 39 39 40 41 43 45 46 46 46 47 47 48 49 49 50 50 51 51 51 50
35 34 33 34 35 35 35 37 38 40 42 42 42 45 44 43 44 46 47 48 48 49 48 46 43 42 41 41 41 38 35 37 39 40 41 42 40 38 36 36 37 38 37 35 32 32 37 40 39 38 40 42 44 47 48 47 42 38 38 39 41 42 42 41 40 38 38 40 41 42 43 45 45 45 45 46 48 48 49 50 50 50 50 50 49 48
36 36 35 35 36 37 38 39 41 43 44 44 44 44 44 44 46 47 46 46 47 48 48 46 44 43 40 38 40 39 34 33 34 35 38 40 39 36 35 34 35 36 34 31 29 31 36 38 37 39 42 42 44 47 45 42 39 39 40 41 43 42 40 39 38 37 39 40 41 42 43 44 44 45 45 47 48 49 50 50 50 49 48 48 47 46
37 39 40 40 39 39 40 40 42 43 43 43 43 44 44 44 45 46 47 46 44 43 45 45 43 43 42 41 40 41 40 38 35 33 34 36 36 34 34 33 33 33 31 28 26 28 32 35 38 42 46 46 45 43 40 41 42 42 42 43 42 40 37 36 36 37 39 40 40 41 43 43 43 44 45 47 48 49 49 49 48 47 46 45 45 45
39 39 41 41 40 40 41 42 42 42 43 44 44 43 43 43 43 45 46 45 40 39 41 42 40 39 39 38 36 38 41 41 38 35 34 34 33 32 33 32 31 32 29 25 24 27 32 37 41 43 45 44 42 39 39 40 41 40 41 40 37 34 33 34 35 37 38 39 40 41 42 42 43 44 46 47 48 48 47 46 45 44 43 43 44 45
40 39 39 40 41 41 43 44 43 43 44 46 46 44 45 46 44 43 43 41 39 39 40 40 38 36 34 33 32 33 36 37 35 33 33 33 30 30 31 30 29 29 27 23 23 30 37 38 35 33 35 39 40 39 38 37 37 37 36 33 31 31 31 32 34 36 37 38 39 39 41 42 44 45 46 47 46 45 45 43 42 41 42 42 43 44
42 41 41 42 43 44 45 45 43 42 44 46 47 46 48 48 44 40 40 40 38 38 38 38 38 36 33 31 31 30 30 31 31 31 32 31 28 28 31 30 27 25 24 25 29 34 35 31 25 23 27 32 35 35 34 32 32 32 30 28 28 29 30 32 33 34 35 36 37 39 41 43 44 45 45 44 44 43 42 41 40 40 41 42 42 41
45 45 44 44 45 47 47 44 41 42 43 44 44 44 44 43 38 34 35 36 35 34 34 35 35 33 32 31 31 29 27 27 29 30 30 28 27 28 30 30 26 22 22 26 32 32 29 26 25 27 29 28 28 28 27 26 26 26 25 24 26 27 29 30 32 33 34 36 38 39 41 42 42 43 43 42 42 41 40 39 39 40 41 41 40 39
46 45 44 43 43 45 46 43 40 41 41 40 39 40 40 39 35 31 31 32 32 32 33 32 30 30 29 28 27 26 26 26 28 29 28 26 26 27 29 29 25 20 18 20 22 22 21 21 22 24 26 24 21 20 21 21 22 23 22 22 25 26 28 29 30 32 34 36 38 39 39 40 40 40 40 40 39 39 38 37 38 40 41 41 39 37
44 42 41 40 41 41 41 38 37 37 36 35 36 37 36 36 34 32 31 30 29 29 31 30 28 28 29 28 26 24 25 26 26 26 26 24 23 24 26 25 20 16 14 13 13 15 17 17 17 17 18 17 16 17 18 19 20 21 21 22 24 25 27 28 29 31 33 34 36 37 38 38 38 38 38 38 37 36 36 36 38 40 40 39 38 36
39 38 36 36 36 34 33 32 33 34 32 31 32 35 35 34 32 32 33 33 31 31 31 29 27 27 28 27 25 23 24 25 24 24 24 22 20 20 22 22 18 16 13 10 11 14 14 14 15 14 14 14 15 16 17 19 20 20 21 22 24 25 26 28 29 30 32 34 35 37 37 36 37 36 36 35 34 34 34 36 37 39 39 38 36 35
34 34 33 34 33 30 29 30 31 33 32 29 30 32 33 32 29 29 31 34 35 34 32 29 27 26 26 26 24 21 21 22 22 21 21 19 17 17 19 20 20 18 15 13 13 14 14 13 14 14 13 14 15 16 18 19 20 20 21 22 24 25 26 26 28 30 32 34 35 35 35 35 35 34 33 32 32 32 34 35 36 36 36 35 35 34
Wind_Direction
260 260 259 259 258 258 258 253 249 253 257 259 254 249 252 247 238 243 251 256 259 264 269 269 264 257 253 251 254 266 273 269 263 266 268 268 268 266 265 264 265 267 268 271 272 272 271 270 270 273 275 275 274 273 273 271 269 267 267 267 267 268 268 267 267 267 267 266 264 262 261 260 259 258 257 257 257 257 257 256 256 256 257 256 254 252
260 260 260 255 254 259 261 258 258 262 263 259 251 249 253 252 250 253 256 262 267 267 266 268 270 267 261 259 255 260 271 274 269 265 266 266 266 265 266 267 267 267 267 268 271 274 274 272 270 272 274 273 273 272 271 270 269 267 267 268 268 268 267 267 266 265 265 264 264 262 260 258 258 257 256 256 257 257 256 256 256 256 256 255 255 254
260 258 255 254 256 259 260 261 261 259 257 254 252 250 251 255 260 262 261 264 267 266 266 269 271 270 265 262 261 261 267 274 275 268 264 263 263 263 265 267 268 268 268 269 270 273 274 273 272 273 273 273 271 271 271 270 269 269 269 269 269 268 267 266 264 263 262 262 262 261 260 257 255 255 255 254 255 256 256 256 257 257 257 256 254 254
259 258 254 255 260 258 256 258 260 258 256 254 253 253 254 255 257 261 264 263 263 266 273 274 269 267 267 265 263 262 263 269 275 273 267 262 262 263 263 264 265 266 268 269 270 271 272 273 274 274 274 273 272 271 271 271 270 271 271 270 270 268 265 264 262 260 259 259 259 259 259 257 255 253 253 253 254 255 256 256 256 256 257 257 257 255
257 255 255 258 257 252 253 257 260 260 258 256 255 255 255 254 251 250 255 260 268 277 280 275 271 269 269 266 262 261 263 265 269 272 270 264 261 261 263 263 263 264 265 266 268 269 271 274 275 274 274 274 274 272 272 271 271 271 270 270 268 266 264 262 259 258 257 256 256 256 256 256 255 254 252 252 253 254 256 256 256 256 256 257 258 257
262 256 254 257 256 255 256 260 261 261 261 261 261 261 259 255 252 252 258 265 274 282 277 271 271 272 269 265 264 264 263 263 265 268 269 266 262 260 261 262 263 264 264 264 265 267 270 274 274 274 274 274 275 274 272 271 271 270 269 267 265 264 263 261 259 257 257 256 255 255 255 255 254 254 254 253 253 255 256 257 258 258 258 258 258 258
261 259 256 252 256 261 262 263 265 265 266 266 264 264 261 259 258 257 262 270 274 275 272 271 272 274 271 268 271 273 269 266 263 264 266 265 264 263 262 261 262 263 263 264 265 267 269 271 273 274 274 273 274 273 272 271 269 268 267 266 265 264 262 261 260 259 259 258 258 257 256 256 254 253 253 253 252 253 256 257 259 260 260 261 260 259
257 265 265 258 259 265 266 267 267 266 266 267 266 265 262 262 264 264 263 268 272 269 269 273 276 275 272 271 277 282 278 275 272 267 266 266 265 264 264 264 263 263 264 265 266 268 269 268 270 272 272 271 271 271 271 270 269 268 267 267 266 265 264 263 263 262 262 261 261 260 258 257 256 254 253 253 252 251 252 255 257 259 261 263 264 263
254 265 271 269 265 267 269 267 265 264 264 263 263 264 262 263 268 270 266 268 272 267 268 276 280 278 273 270 277 278 270 276 283 277 268 267 266 266 267 268 267 265 265 265 265 268 270 269 268 269 270 270 269 269 269 269 268 268 268 267 267 266 265 265 265 265 264 262 261 260 258 257 255 254 253 253 253 252 251 252 253 256 258 261 263 265
254 260 268 270 266 265 266 268 267 266 263 262 266 265 264 267 272 273 272 275 273 268 272 279 278 280 281 280 283 282 277 281 287 283 277 272 263 262 265 267 269 269 266 265 265 265 268 270 269 269 270 271 270 269 269 268 268 268 268 267 266 267 266 266 265 264 262 261 259 258 257 255 254 254 253 253 253 254 253 253 253 254 255 257 260 263
260 263 267 268 265 265 263 263 265 267 266 268 271 269 269 274 276 274 274 275 272 273 283 290 281 278 282 282 269 266 281 283 279 280 285 283 271 263 265 267 269 273 272 270 268 266 267 270 272 272 272 272 271 270 269 269 269 269 268 267 266 266 266 265 263 261 261 260 259 259 259 258 257 256 254 253 252 253 253 252 253 253 254 255 257 260
264 268 271 268 266 266 264 262 261 264 268 272 273 272 274 280 284 282 279 274 273 278 286 287 276 269 274 277 244 219 262 272 267 269 281 291 289 280 274 273 273 276 279 278 275 273 271 272 274 274 274 273 271 271 271 270 270 270 269 268 267 265 264 262 262 261 261 260 260 260 260 260 260 259 258 257 255 255 254 254 253 253 254 255 256 258
271 273 272 269 268 266 263 264 264 267 270 271 272 274 275 277 278 278 279 283 285 287 284 274 263 258 264 265 224 212 241 261 260 257 265 284 293 291 287 282 280 280 284 284 281 279 275 273 275 276 274 272 270 270 270 270 270 269 268 267 266 265 264 263 263 263 262 261 260 259 260 261 261 262 262 262 262 261 261 261 260 258 258 258 259 260
271 272 273 277 276 271 268 264 262 270 278 275 272 270 269 270 265 261 264 274 282 283 282 273 255 248 253 254 239 226 234 251 260 263 270 274 282 292 292 287 284 283 284 284 283 282 278 274 274 275 274 272 271 270 269 269 268 268 267 266 265 264 264 264 265 265 263 262 261 261 261 262 263 265 266 266 267 267 267 267 267 266 265 264 264 265
263 264 271 277 274 272 273 267 257 252 259 272 282 278 269 264 261 261 260 257 256 258 260 262 257 254 255 259 263 251 243 252 262 271 280 280 281 287 288 285 284 282 282 281 280 282 282 278 275 274 276 275 273 272 271 270 269 268 267 266 265 264 264 265 266 265 265 264 264 264 264 265 266 268 269 269 270 271 271 271 271 272 272 272 271 271
264 262 260 258 257 261 265 266 266 259 251 255 265 269 270 269 265 265 265 262 260 258 257 259 263 265 266 265 266 267 268 273 277 276 278 283 286 286 283 280 278 278 281 281 278 279 280 280 277 275 275 274 274 274 272 271 270 269 269 268 267 266 266 266 266 266 266 266 267 267 268 269 269 270 272 272 273 274 274 274 274 274 274 275 276 276
257 257 253 250 249 254 261 266 268 268 264 256 247 252 263 272 271 269 268 266 264 263 263 264 266 268 272 271 269 272 275 275 278 279 277 278 284 284 281 278 272 269 273 276 278 278 278 280 279 276 274 273 274 274 273 272 270 269 270 270 270 269 268 269 268 268 269 269 269 270 271 272 272 273 273 274 275 275 275 275 275 275 275 276 276 277
259 260 258 256 254 259 266 268 266 263 262 261 260 260 261 262 266 269 269 267 266 267 268 269 270 271 271 271 272 275 275 274 277 279 275 271 271 273 278 282 280 272 265 265 272 276 279 282 282 280 278 276 275 275 274 272 270 271 271 269 270 270 270 270 271 271 273 272 271 272 274 274 275 275 275 275 276 276 276 276 276 276 276 276 277 278
266 265 262 260 261 262 265 267 268 262 257 262 267 266 263 263 265 266 266 270 272 272 272 271 271 272 272 271 272 271 270 272 272 265 259 261 259 259 267 275 280 279 272 267 269 275 279 280 283 284 284 281 279 277 275 272 270 271 271 269 269 270 270 270 271 272 273 273 274 276 277 277 277 277 277 277 277 277 277 277 277 278 278 278 279 279
268 268 265 265 264 262 261 263 266 264 265 272 272 266 264 265 265 263 261 266 270 270 272 272 270 270 271 272 272 270 267 267 266 259 256 260 260 259 261 266 272 277 276 273 274 277 279 280 285 287 287 285 281 277 274 272 272 271 271 271 271 271 270 271 272 273 273 273 275 276 277 277 277 277 277 277 278 278 278 278 278 279 279 279 280 279
270 269 267 266 264 263 262 264 269 270 272 273 270 267 266 266 266 266 265 265 264 265 268 270 270 269 268 269 269 269 267 266 268 265 262 264 264 262 261 263 266 268 267 270 274 276 277 282 285 286 287 287 283 278 276 276 277 275 274 274 274 273 273 272 272 273 273 273 274 275 275 276 277 277 278 278 278 278 278 279 279 279 279 279 279 279
266 266 265 264 264 264 263 264 266 268 268 267 266 266 267 267 269 269 267 264 260 260 263 265 267 268 268 269 268 267 269 270 271 269 264 261 261 262 260 257 261 263 263 267 271 272 275 280 283 282 283 284 282 281 280 280 279 277 276 275 273 273 273 272 273 272 272 274 275 276 276 276 277 277 278 278 277 278 278 278 279 278 278 278 278 278
263 265 266 265 264 264 262 262 263 264 265 266 267 268 269 270 271 269 267 266 264 263 264 265 268 267 267 270 271 271 272 272 270 268 267 263 259 260 258 255 258 262 263 267 269 270 273 276 278 277 277 279 283 283 281 279 278 274 272 271 271 272 272 272 273 273 273 275 276 277 278 278 278 277 277 277 276 276 276 277 277 277 277 277 277 276
265 268 268 267 266 266 265 264 264 265 267 266 266 267 266 266 266 266 268 270 270 269 268 270 271 269 268 271 271 271 270 269 268 268 268 267 267 266 262 259 259 259 260 263 266 269 273 273 273 274 276 279 282 282 280 277 276 273 271 271 270 271 272 273 273 273 275 277 278 279 280 280 279 278 277 276 275 275 275 275 275 276 276 276 276 275
267 268 268 268 268 268 268 267 267 267 265 262 262 261 262 263 264 265 268 269 269 270 271 271 271 270 268 268 268 268 268 268 268 267 267 268 269 268 264 262 261 261 263 265 268 272 274 271 270 272 276 278 278 276 273 269 271 273 273 273 272 271 273 275 275 275 276 278 279 281 280 279 278 277 276 275 275 275 275 275 275 275 276 275 275 275
266 267 267 268 268 268 268 268 267 264 261 262 263 263 264 266 267 267 267 266 266 268 270 270 271 271 268 265 266 267 268 268 266 265 267 269 269 267 264 264 264 264 266 267 270 273 272 272 272 270 272 273 272 271 268 263 267 270 271 273 273 273 276 277 277 277 278 279 280 280 279 278 277 276 276 275 275 276 275 276 276 276 276 276 275 275
265 266 267 268 269 269 269 268 266 264 264 265 265 266 267 268 269 269 268 267 267 268 268 269 271 271 268 267 267 267 268 269 267 265 265 265 265 264 264 265 265 265 265 265 266 268 268 271 273 270 269 269 267 267 265 261 263 267 270 272 273 274 277 278 277 277 278 279 279 279 278 277 277 277 277 277 277 277 277 278 277 277 277 276 276 276
266 266 267 268 269 270 270 269 267 266 266 265 264 265 267 269 270 270 269 269 269 269 269 268 269 270 269 270 270 269 269 269 268 267 266 263 261 260 260 262 263 264 264 262 262 262 264 267 268 268 269 268 265 264 263 261 259 261 265 269 271 274 277 277 276 275 276 277 278 278 277 276 276 277 278 279 280 280 280 280 279 278 277 277 277 277
269 267 267 268 269 269 270 270 269 267 266 265 266 266 267 268 269 268 268 268 268 268 269 270 270 270 271 272 272 271 270 268 267 266 265 264 262 260 258 259 259 260 261 260 259 259 262 264 265 266 266 266 265 264 263 262 260 259 261 263 268 273 275 274 274 273 274 276 276 277 276 275 276 276 278 279 281 282 282 281 280 279 278 277 277 277
275 273 271 270 268 268 269 270 269 268 268 268 268 269 269 268 267 267 267 269 270 271 272 273 271 270 271 274 273 271 268 268 267 266 265 264 263 261 260 260 259 259 258 258 257 257 260 262 262 262 261 261 264 264 261 260 261 261 261 261 264 268 269 269 271 272 272 274 275 276 276 276 277 278 279 281 283 284 284 283 281 280 279 279 278 278
276 276 276 275 273 270 271 272 271 271 271 271 271 270 270 269 269 271 274 275 276 275 275 274 272 272 273 275 275 272 269 268 267 265 263 262 261 261 261 261 260 258 256 256 256 255 257 259 258 258 257 258 260 260 253 252 257 260 260 260 262 264 264 265 268 269 270 272 274 276 276 277 279 280 281 284 286 287 287 285 283 281 281 280 280 279
273 275 275 276 276 275 276 277 276 276 276 274 271 271 272 273 275 276 276 276 276 276 277 276 277 278 279 277 276 273 271 269 266 263 261 262 262 263 263 263 261 259 257 256 255 254 253 254 253 253 254 255 257 254 246 243 249 255 257 260 261 260 261 263 266 267 268 271 274 275 276 277 280 281 283 285 287 288 287 286 284 283 282 282 281 281
272 273 274 275 276 277 278 279 280 279 276 274 274 277 279 279 278 276 274 275 277 279 280 279 280 281 280 278 275 271 269 267 264 262 262 264 264 264 264 264 263 262 261 257 256 254 252 250 249 248 248 249 251 251 245 240 244 252 256 258 258 257 259 262 265 266 267 270 273 274 275 277 279 281 283 285 287 287 287 286 285 284 284 283 283 283
272 273 274 275 276 277 278 280 281 277 275 277 281 282 280 278 278 278 278 279 280 281 281 281 281 281 279 275 272 269 268 264 262 263 265 266 266 264 262 262 261 261 260 256 254 252 250 249 248 246 245 244 244 247 245 242 247 253 254 255 258 259 260 262 263 264 266 269 272 273 275 278 279 281 283 285 287 288 287 287 286 286 285 285 285 284
274 275 275 275 277 279 279 278 277 276 278 282 282 279 277 278 279 280 281 282 284 285 284 283 282 280 276 273 271 270 270 268 268 269 267 265 266 266 264 264 263 262 259 255 251 250 248 248 247 245 245 244 241 243 244 245 251 254 251 254 264 266 264 262 262 263 265 268 270 273 276 278 279 281 283 285 287 288 288 287 287 287 287 287 286 285
275 275 275 276 278 279 279 277 276 278 280 281 280 280 283 284 283 282 283 285 286 285 282 280 279 277 275 273 272 273 274 273 272 271 267 266 267 267 266 267 266 263 261 257 253 251 249 248 246 244 245 244 241 241 243 245 250 252 251 257 269 270 266 264 262 263 265 267 270 274 277 278 279 280 283 285 287 289 289 289 289 289 289 288 288 287
276 276 278 281 282 282 280 277 275 276 278 280 282 285 285 285 284 283 284 285 284 281 279 278 278 276 274 273 273 274 275 274 272 270 269 269 271 270 268 267 265 264 264 260 256 254 252 249 245 242 243 241 237 238 241 244 248 251 254 262 269 269 265 263 262 264 266 268 271 274 276 277 279 281 283 286 288 290 291 290 290 290 290 290 289 287
284 284 286 287 284 281 279 277 274 275 279 284 286 285 284 285 285 283 283 285 283 279 279 279 278 277 275 274 274 274 274 273 273 273 271 269 270 270 268 268 267 267 267 263 256 252 251 248 243 239 237 235 235 237 240 244 248 250 254 261 266 266 263 262 262 264 266 269 272 273 274 276 279 282 284 286 289 291 292 291 291 292 292 291 289 287
281 284 285 281 278 277 275 274 274 276 280 283 283 282 283 285 285 283 283 284 283 280 280 280 278 276 275 275 274 274 275 276 275 276 274 270 270 270 269 271 271 269 268 264 256 251 247 241 238 237 234 234 237 238 240 244 246 247 252 258 262 264 264 262 262 264 266 270 271 272 274 276 279 282 284 288 291 293 293 293 293 293 293 291 289 288
270 270 271 273 277 279 276 274 275 277 279 280 280 281 282 282 281 279 278 280 281 280 279 279 278 275 275 275 274 275 279 280 277 275 274 272 271 271 271 271 270 267 265 260 253 248 242 235 238 245 242 238 238 238 239 242 242 245 253 259 261 263 264 263 262 264 267 269 269 271 274 277 280 282 285 289 292 293 293 294 294 293 292 290 289 289
274 272 271 272 273 273 272 272 274 275 275 276 277 278 279 279 278 277 277 279 279 276 274 274 275 277 277 274 270 271 278 282 278 274 272 271 270 269 269 269 267 264 261 255 248 244 238 234 239 246 243 237 234 233 234 236 240 248 257 260 261 262 262 262 263 265 267 268 269 272 275 277 280 283 287 290 292 293 293 293 293 292 290 290 289 288
278 277 275 272 269 268 269 270 271 272 274 277 278 278 277 277 276 276 277 277 276 274 274 273 272 273 275 274 268 265 271 281 283 276 271 269 268 266 266 267 265 260 256 251 244 238 234 231 231 231 227 224 225 226 229 237 247 255 258 258 259 260 259 259 262 264 266 269 271 274 276 278 282 285 289 291 292 292 292 292 291 291 290 289 288 287
278 278 277 275 272 271 270 270 270 272 275 277 278 278 278 276 274 274 276 275 274 275 276 275 273 272 273 274 271 264 266 276 282 279 272 268 266 264 263 262 259 253 249 247 243 235 231 230 228 226 224 222 221 225 236 248 254 256 255 255 257 257 256 257 260 263 267 270 273 275 277 280 284 287 290 290 290 291 291 290 290 289 288 287 288 288
276 276 277 276 273 272 271 271 273 274 276 277 278 278 277 276 274 275 276 275 274 275 275 273 274 273 272 273 272 267 265 270 276 277 272 267 265 263 259 257 252 246 244 248 243 227 219 217 217 217 219 220 224 232 243 250 252 251 252 253 253 252 253 258 262 265 268 271 273 276 279 283 286 288 288 288 288 289 289 289 288 287 287 288 289 290
275 274 272 271 271 270 271 273 275 275 275 276 277 276 275 275 275 276 275 273 272 274 275 272 270 270 269 272 276 273 268 269 274 274 270 266 265 262 255 250 243 238 242 250 240 219 210 209 210 215 221 226 234 242 246 247 248 247 247 248 248 250 255 260 265 268 270 273 276 279 282 285 286 286 286 287 287 288 288 287 287 287 288 290 292 292
275 271 267 268 271 271 271 275 277 277 274 273 273 273 272 272 271 272 272 272 273 276 276 272 268 267 266 270 280 281 272 268 271 271 268 265 262 258 252 245 240 241 246 244 232 221 219 220 224 234 240 240 242 243 242 242 244 243 242 244 247 253 259 264 268 270 272 275 278 281 284 285 285 285 286 286 287 287 287 287 287 288 290 292 293 293
276 273 271 271 272 271 273 275 274 273 273 273 272 271 269 267 268 271 270 269 272 277 278 274 270 265 263 269 279 280 272 267 268 269 268 263 259 258 252 244 246 255 249 231 222 223 228 234 237 242 246 244 240 236 236 239 242 241 242 247 253 259 263 266 268 271 274 277 280 282 283 284 285 286 287 287 288 288 287 287 288 291 294 295 295 294
276 275 275 275 273 272 274 275 270 267 269 272 271 268 265 264 266 270 270 271 275 279 280 278 272 263 260 271 282 278 268 265 266 267 266 262 261 261 250 240 244 253 240 219 218 225 231 235 235 234 235 235 233 232 236 243 245 244 247 253 259 262 264 266 270 273 276 279 280 282 284 285 286 288 288 288 289 288 288 290 293 296 298 298 296 294
278 276 277 277 276 274 274 274 269 264 265 268 267 264 263 265 267 267 269 272 277 279 278 277 272 261 259 273 284 276 266 265 265 265 266 264 264 261 247 236 237 242 230 217 223 231 230 228 226 222 224 230 234 236 242 248 249 250 255 260 262 263 265 268 272 275 277 280 282 284 286 287 288 289 289 288 288 288 291 295 298 300 300 299 297 295
278 277 276 273 273 275 275 272 267 261 260 264 264 261 259 262 266 268 268 269 272 277 278 276 271 263 262 273 281 272 264 265 265 265 266 263 260 254 244 236 233 235 235 235 235 233 228 224 225 227 233 240 244 244 248 253 255 257 261 262 261 262 266 270 274 278 281 283 284 286 288 289 290 289 288 288 289 292 296 300 301 302 301 299 297 297
276 273 269 265 266 269 270 268 264 260 259 262 264 261 257 257 262 270 272 271 272 276 277 274 270 264 264 273 278 269 260 261 262 261 261 257 249 240 234 232 234 236 239 242 240 236 230 225 227 234 239 244 247 249 251 255 257 258 259 259 261 265 270 274 279 282 284 286 287 289 290 290 289 288 288 290 293 297 300 302 303 303 301 298 297 299
Height
5750 5751 5752 5752 5752 5752 5753 5754 5754 5753 5755 5757 5757 5757 5757 5759 5761 5762 5759 5753 5752 5755 5757 5758 5759 5762 5762 5763 5763 5753 5749 5758 5764 5764 5764 5763 5763 5763 5763 5764 5764 5764 5762 5760 5758 5757 5759 5761 5762 5764 5766 5766 5765 5766 5767 5768 5768 5768 5769 5769 5770 5770 5770 5770 5770 5770 5771 5772 5773 5774 5775 5775 5776 5776 5777 5777 5778 5779 5780 5781 5782 5783 5784 5786 5787 5788
5748 5748 5749 5749 5748 5749 5750 5750 5751 5752 5754 5755 5755 5755 5755 5755 5757 5758 5754 5749 5749 5753 5755 5755 5755 5757 5759 5759 5761 5756 5747 5749 5759 5762 5761 5761 5760 5759 5759 5760 5761 5760 5760 5758 5756 5754 5754 5755 5758 5761 5762 5762 5762 5763 5763 5764 5764 5765 5765 5766 5767 5768 5768 5768 5768 5767 5768 5769 5770 5771 5772 5773 5774 5774 5774 5775 5775 5776 5777 5778 5779 5781 5782 5783 5783 5785
5745 5746 5746 5745 5746 5747 5746 5746 5748 5749 5751 5752 5752 5753 5752 5752 5754 5754 5752 5748 5746 5747 5750 5753 5752 5752 5755 5756 5755 5755 5749 5746 5750 5757 5759 5758 5757 5756 5756 5757 5757 5756 5756 5756 5754 5752 5750 5750 5754 5758 5759 5758 5759 5760 5760 5760 5760 5761 5762 5763 5764 5765 5765 5765 5765 5765 5765 5766 5767 5768 5769 5770 5771 5771 5772 5772 5773 5773 5775 5776 5777 5778 5779 5779 5781 5782
5742 5743 5741 5741 5744 5744 5743 5743 5745 5746 5747 5748 5749 5749 5749 5751 5752 5751 5748 5743 5742 5745 5748 5749 5748 5749 5751 5752 5750 5750 5749 5746 5745 5750 5754 5754 5753 5752 5753 5754 5753 5753 5753 5752 5752 5750 5747 5747 5750 5753 5755 5754 5755 5756 5757 5757 5757 5758 5759 5760 5761 5761 5762 5762 5762 5762 5763 5763 5764 5765 5766 5767 5768 5769 5769 5770 5771 5771 5772 5773 5774 5775 5775 5776 5777 5779
5740 5738 5738 5739 5740 5740 5740 5741 5742 5743 5744 5745 5746 5746 5747 5748 5747 5746 5742 5738 5739 5744 5746 5745 5743 5745 5748 5746 5745 5745 5746 5746 5744 5744 5747 5750 5750 5749 5749 5749 5749 5750 5750 5749 5749 5747 5745 5746 5746 5749 5751 5751 5751 5753 5753 5753 5754 5755 5756 5757 5758 5758 5759 5759 5759 5760 5760 5761 5761 5762 5763 5764 5765 5766 5767 5768 5768 5769 5769 5770 5771 5772 5773 5773 5774 5776
5736 5734 5735 5737 5736 5736 5738 5738 5739 5740 5741 5741 5742 5742 5743 5744 5742 5741 5739 5736 5738 5741 5741 5740 5739 5741 5743 5740 5740 5742 5742 5742 5742 5742 5742 5745 5746 5745 5746 5746 5746 5746 5746 5746 5746 5744 5743 5744 5743 5745 5748 5748 5748 5748 5750 5750 5751 5751 5752 5753 5754 5755 5755 5756 5756 5757 5757 5758 5758 5759 5760 5761 5762 5763 5764 5765 5766 5766 5767 5767 5768 5769 5770 5770 5771 5773
5732 5729 5733 5734 5732 5733 5735 5735 5736 5736 5737 5737 5738 5737 5738 5739 5738 5737 5737 5735 5737 5738 5735 5735 5736 5738 5738 5736 5736 5738 5737 5738 5740 5740 5740 5740 5741 5742 5742 5743 5743 5743 5743 5743 5743 5741 5741 5742 5741 5741 5743 5745 5744 5744 5746 5747 5747 5748 5749 5750 5751 5752 5752 5752 5753 5754 5754 5755 5756 5756 5757 5758 5759 5760 5761 5762 5763 5763 5764 5764 5765 5765 5766 5767 5768 5769
5729 5727 5729 5731 5729 5730 5731 5732 5732 5732 5732 5733 5733 5733 5733 5733 5733 5734 5735 5733 5734 5735 5731 5731 5734 5734 5734 5735 5734 5734 5732 5732 5736 5737 5737 5737 5738 5738 5739 5739 5739 5739 5740 5740 5740 5738 5737 5738 5739 5739 5739 5741 5741 5741 5742 5743 5743 5744 5745 5746 5747 5748 5749 5749 5750 5751 5751 5752 5752 5753 5754 5755 5756 5757 5758 5758 5759 5760 5761 5762 5762 5763 5763 5763 5764 5765
5727 5725 5725 5727 5727 5727 5728 5728 5728 5728 5729 5729 5729 5730 5730 5729 5729 5730 5731 5731 5731 5730 5728 5729 5731 5730 5731 5734 5733 5732 5731 5730 5731 5732 5734 5734 5734 5735 5736 5736 5735 5735 5736 5736 5736 5736 5734 5734 5736 5736 5736 5737 5737 5738 5738 5739 5739 5740 5742 5743 5743 5744 5745 5746 5746 5747 5748 5749 5749 5750 5750 5751 5752 5753 5754 5755 5756 5757 5758 5759 5760 5760 5761 5761 5761 5762
5724 5722 5722 5724 5724 5725 5725 5725 5725 5725 5725 5726 5726 5727 5727 5726 5727 5727 5727 5727 5727 5726 5726 5729 5729 5727 5728 5731 5732 5731 5729 5729 5728 5727 5728 5731 5732 5732 5733 5733 5732 5731 5732 5733 5733 5733 5731 5730 5732 5734 5733 5733 5734 5734 5735 5735 5736 5737 5738 5739 5739 5741 5742 5742 5743 5744 5744 5745 5745 5746 5747 5747 5748 5749 5750 5751 5752 5753 5754 5755 5756 5757 5758 5758 5758 5758
5721 5720 5721 5722 5722 5722 5723 5722 5723 5723 5722 5723 5724 5724 5724 5724 5724 5724 5724 5725 5723 5722 5724 5727 5728 5726 5725 5727 5730 5730 5728 5726 5726 5725 5724 5726 5728 5729 5730 5730 5729 5728 5728 5728 5729 5730 5729 5728 5729 5731 5731 5730 5730 5731 5731 5732 5733 5733 5734 5735 5736 5737 5738 5739 5739 5740 5740 5741 5741 5742 5742 5743 5744 5745 5746 5747 5748 5749 5750 5751 5752 5753 5754 5755 5755 5756
5718 5718 5718 5719 5719 5720 5720 5720 5720 5720 5720 5721 5721 5722 5722 5721 5721 5720 5721 5721 5720 5721 5723 5724 5724 5723 5722 5724 5728 5728 5725 5722 5723 5724 5723 5722 5722 5724 5726 5726 5726 5726 5724 5724 5724 5725 5726 5726 5726 5727 5728 5727 5727 5727 5728 5728 5729 5730 5730 5731 5732 5733 5734 5735 5735 5736 5737 5737 5738 5738 5738 5739 5740 5740 5741 5743 5744 5745 5745 5746 5748 5749 5750 5751 5752 5752
5715 5715 5715 5715 5716 5717 5717 5718 5717 5717 5718 5719 5719 5719 5719 5719 5719 5718 5718 5717 5717 5718 5720 5721 5720 5720 5719 5721 5724 5724 5722 5721 5721 5721 5722 5721 5719 5719 5721 5723 5723 5723 5722 5721 5720 5721 5721 5722 5723 5724 5724 5723 5724 5724 5724 5725 5726 5726 5727 5727 5728 5729 5730 5731 5732 5732 5733 5734 5734 5735 5735 5735 5735 5736 5737 5738 5739 5740 5741 5741 5742 5743 5745 5746 5747 5748
5714 5713 5713 5713 5713 5714 5715 5716 5715 5715 5716 5716 5716 5716 5716 5717 5717 5716 5716 5716 5715 5716 5716 5716 5716 5715 5715 5718 5720 5720 5720 5720 5719 5718 5719 5721 5719 5716 5717 5718 5718 5719 5720 5718 5717 5716 5716 5718 5720 5721 5721 5720 5720 5721 5721 5721 5722 5722 5723 5724 5724 5725 5726 5728 5728 5728 5729 5730 5730 5731 5731 5731 5732 5732 5732 5733 5734 5735 5735 5736 5737 5738 5739 5740 5741 5742
5712 5712 5712 5712 5711 5711 5711 5713 5713 5714 5714 5713 5714 5714 5713 5714 5714 5714 5714 5714 5713 5713 5713 5712 5712 5712 5714 5715 5717 5718 5717 5717 5718 5716 5715 5716 5717 5715 5714 5714 5713 5714 5714 5715 5715 5713 5711 5712 5715 5718 5718 5716 5716 5717 5717 5718 5719 5719 5719 5720 5720 5721 5723 5724 5724 5724 5725 5726 5726 5727 5727 5727 5728 5728 5728 5729 5729 5730 5731 5731 5732 5732 5733 5734 5735 5736
5709 5710 5710 5710 5710 5709 5708 5710 5711 5711 5712 5712 5712 5711 5710 5711 5711 5710 5710 5710 5710 5709 5709 5710 5709 5710 5712 5712 5714 5715 5713 5713 5715 5715 5713 5711 5711 5711 5711 5710 5710 5709 5709 5709 5710 5711 5709 5707 5709 5713 5714 5713 5713 5713 5713 5714 5715 5715 5715 5715 5716 5717 5719 5720 5721 5720 5721 5721 5722 5722 5722 5723 5723 5723 5723 5724 5725 5725 5726 5726 5727 5727 5728 5728 5729 5729
5706 5707 5707 5707 5708 5707 5706 5707 5708 5708 5709 5709 5710 5709 5709 5709 5708 5706 5705 5706 5705 5704 5705 5707 5707 5707 5708 5708 5710 5711 5710 5710 5711 5711 5710 5707 5706 5706 5706 5706 5707 5707 5706 5705 5705 5706 5706 5703 5703 5706 5709 5710 5710 5709 5710 5710 5710 5711 5711 5711 5712 5713 5714 5716 5716 5716 5716 5717 5717 5717 5717 5718 5718 5719 5719 5719 5720 5720 5720 5721 5721 5722 5723 5723 5723 5724
5702 5703 5704 5704 5705 5705 5703 5704 5705 5706 5705 5705 5706 5707 5706 5705 5704 5703 5701 5701 5701 5700 5701 5704 5703 5704 5705 5705 5707 5708 5707 5707 5707 5707 5706 5705 5703 5702 5701 5702 5703 5703 5704 5703 5702 5702 5703 5701 5699 5700 5703 5705 5706 5706 5706 5705 5706 5707 5707 5707 5708 5708 5710 5711 5712 5712 5712 5712 5712 5713 5713 5713 5713 5714 5714 5714 5714 5715 5715 5715 5715 5716 5717 5717 5718 5718
5698 5699 5700 5701 5702 5702 5701 5700 5701 5702 5701 5701 5703 5703 5702 5700 5700 5700 5698 5697 5697 5696 5696 5699 5699 5700 5702 5703 5704 5705 5704 5703 5704 5704 5703 5702 5701 5699 5698 5698 5698 5699 5700 5700 5700 5700 5700 5699 5697 5696 5698 5700 5701 5702 5701 5700 5702 5703 5702 5702 5703 5704 5705 5706 5707 5707 5706 5707 5707 5708 5708 5708 5708 5709 5709 5709 5709 5709 5709 5709 5709 5710 5710 5711 5712 5712
5694 5694 5695 5697 5698 5698 5697 5696 5697 5698 5698 5698 5698 5698 5697 5696 5695 5696 5695 5694 5693 5691 5691 5693 5694 5696 5699 5700 5700 5701 5701 5699 5698 5699 5699 5698 5698 5697 5696 5695 5694 5695 5695 5696 5697 5696 5696 5697 5695 5693 5694 5696 5696 5697 5696 5695 5698 5698 5697 5698 5699 5699 5700 5701 5702 5702 5701 5702 5702 5703 5703 5702 5702 5703 5703 5703 5703 5703 5703 5703 5703 5704 5704 5704 5705 5705
5690 5690 5690 5692 5693 5692 5693 5693 5693 5694 5694 5694 5693 5693 5692 5691 5691 5691 5690 5691 5690 5688 5687 5687 5687 5691 5696 5696 5696 5696 5695 5694 5694 5694 5694 5694 5694 5694 5694 5693 5691 5691 5691 5690 5692 5692 5692 5693 5692 5689 5690 5691 5691 5691 5691 5692 5693 5693 5693 5694 5694 5694 5695 5696 5697 5697 5696 5697 5697 5698 5698 5697 5697 5697 5697 5697 5697 5697 5697 5697 5697 5697 5697 5698 5698 5698
5685 5685 5685 5686 5687 5688 5690 5690 5690 5690 5690 5689 5688 5687 5687 5687 5686 5685 5684 5686 5686 5683 5683 5682 5681 5687 5692 5692 5691 5691 5689 5688 5689 5689 5690 5691 5690 5689 5689 5689 5688 5687 5687 5686 5687 5689 5689 5688 5687 5686 5686 5686 5685 5685 5687 5689 5689 5688 5689 5689 5690 5690 5691 5692 5693 5692 5692 5692 5693 5693 5692 5692 5692 5692 5692 5691 5691 5691 5690 5690 5691 5691 5691 5691 5691 5692
5680 5680 5680 5682 5682 5683 5685 5686 5686 5685 5685 5685 5683 5683 5684 5683 5682 5680 5679 5680 5680 5679 5679 5678 5676 5682 5688 5688 5685 5685 5684 5683 5683 5684 5685 5686 5685 5683 5684 5683 5683 5683 5682 5681 5682 5684 5685 5685 5684 5682 5682 5682 5681 5681 5683 5684 5684 5684 5685 5685 5685 5686 5686 5687 5688 5688 5688 5688 5688 5688 5687 5687 5687 5687 5686 5686 5685 5685 5685 5684 5684 5684 5684 5684 5684 5684
5676 5676 5675 5676 5677 5678 5680 5681 5681 5681 5681 5679 5678 5679 5678 5677 5677 5675 5674 5675 5674 5673 5675 5673 5671 5677 5684 5682 5679 5678 5678 5678 5679 5680 5680 5680 5679 5679 5678 5678 5678 5678 5677 5676 5677 5678 5680 5680 5680 5679 5678 5678 5676 5676 5678 5680 5679 5679 5680 5681 5681 5681 5681 5682 5683 5683 5683 5683 5683 5683 5682 5682 5682 5681 5680 5680 5679 5679 5679 5678 5678 5678 5678 5678 5677 5677
5672 5672 5671 5671 5671 5672 5674 5676 5677 5676 5674 5672 5672 5672 5671 5671 5672 5670 5670 5669 5667 5668 5671 5666 5664 5671 5678 5676 5673 5672 5672 5673 5675 5675 5674 5674 5673 5673 5673 5673 5673 5673 5673 5673 5673 5674 5674 5675 5676 5675 5675 5674 5672 5671 5674 5676 5675 5675 5675 5676 5676 5676 5676 5677 5678 5678 5678 5678 5678 5678 5677 5676 5676 5675 5675 5674 5673 5673 5672 5672 5672 5672 5671 5671 5671 5671
5668 5667 5666 5665 5666 5667 5669 5671 5671 5669 5665 5664 5666 5666 5666 5667 5667 5666 5665 5663 5662 5664 5664 5659 5658 5664 5670 5671 5670 5669 5667 5668 5669 5669 5668 5668 5667 5666 5667 5669 5670 5669 5670 5670 5669 5670 5670 5670 5671 5671 5671 5672 5668 5665 5669 5672 5670 5671 5672 5671 5671 5672 5672 5672 5673 5673 5673 5673 5674 5673 5672 5671 5670 5670 5669 5668 5668 5667 5666 5666 5666 5665 5665 5664 5664 5664
5662 5661 5661 5660 5660 5661 5663 5664 5664 5661 5659 5660 5660 5660 5661 5662 5662 5661 5659 5657 5658 5657 5655 5655 5655 5656 5660 5665 5666 5666 5664 5662 5662 5662 5661 5660 5661 5660 5661 5662 5663 5664 5664 5665 5664 5664 5665 5665 5666 5666 5667 5668 5666 5661 5662 5666 5665 5666 5667 5666 5665 5666 5667 5667 5668 5667 5667 5668 5668 5668 5668 5666 5665 5664 5664 5663 5663 5662 5661 5661 5660 5659 5658 5657 5657 5657
5655 5656 5656 5655 5654 5656 5657 5657 5656 5655 5654 5654 5654 5655 5657 5657 5657 5655 5651 5651 5652 5648 5646 5651 5652 5648 5652 5659 5660 5661 5660 5656 5654 5653 5652 5652 5654 5655 5655 5655 5655 5656 5657 5658 5658 5658 5659 5659 5659 5661 5662 5663 5662 5658 5656 5658 5659 5661 5663 5662 5660 5661 5662 5662 5662 5662 5662 5662 5663 5663 5663 5662 5661 5660 5659 5658 5657 5657 5656 5655 5654 5653 5652 5651 5651 5651
5647 5650 5650 5649 5649 5650 5650 5649 5649 5647 5646 5647 5648 5649 5652 5652 5650 5647 5644 5644 5644 5641 5640 5646 5646 5643 5646 5652 5653 5654 5652 5647 5645 5644 5643 5644 5646 5647 5647 5647 5647 5648 5649 5651 5652 5652 5653 5653 5653 5654 5655 5657 5658 5655 5652 5651 5652 5656 5659 5658 5656 5656 5656 5656 5656 5656 5656 5657 5657 5657 5657 5657 5657 5656 5655 5654 5653 5652 5650 5649 5648 5646 5645 5645 5645 5644
5639 5642 5643 5641 5642 5644 5644 5643 5641 5640 5639 5640 5642 5644 5646 5645 5641 5638 5637 5638 5638 5636 5636 5639 5637 5637 5642 5645 5645 5644 5642 5639 5637 5636 5635 5635 5636 5637 5638 5638 5640 5641 5641 5642 5644 5645 5646 5647 5647 5648 5649 5651 5652 5650 5647 5644 5644 5648 5652 5652 5651 5651 5651 5650 5650 5651 5651 5651 5652 5652 5651 5651 5651 5650 5649 5648 5647 5646 5644 5643 5642 5640 5639 5639 5638 5638
5633 5634 5635 5633 5633 5637 5638 5635 5633 5633 5633 5633 5636 5639 5638 5634 5632 5631 5632 5633 5631 5629 5630 5629 5626 5628 5637 5639 5634 5633 5633 5631 5629 5627 5626 5625 5626 5627 5628 5629 5630 5631 5632 5633 5634 5636 5638 5639 5640 5641 5643 5645 5646 5646 5644 5638 5636 5640 5644 5644 5645 5646 5646 5645 5645 5645 5645 5646 5646 5646 5646 5645 5645 5644 5643 5643 5641 5640 5638 5637 5635 5634 5633 5633 5632 5631
5629 5628 5629 5626 5625 5630 5632 5627 5626 5627 5626 5626 5630 5631 5629 5626 5626 5626 5625 5625 5623 5622 5621 5620 5618 5621 5628 5628 5623 5621 5622 5621 5620 5618 5616 5617 5619 5619 5619 5620 5620 5621 5623 5624 5624 5626 5629 5630 5630 5633 5636 5637 5639 5641 5640 5634 5630 5632 5636 5637 5639 5641 5641 5641 5640 5640 5640 5640 5641 5641 5640 5639 5639 5638 5637 5637 5636 5634 5633 5631 5629 5628 5627 5626 5626 5625
5624 5623 5623 5621 5619 5624 5626 5620 5619 5620 5618 5619 5623 5623 5621 5620 5618 5617 5617 5618 5618 5616 5613 5612 5612 5613 5615 5614 5612 5611 5611 5611 5610 5609 5609 5611 5612 5612 5612 5612 5611 5611 5613 5615 5615 5617 5619 5620 5621 5623 5626 5629 5632 5633 5633 5630 5627 5627 5630 5631 5633 5635 5635 5636 5635 5635 5635 5635 5635 5636 5635 5634 5633 5633 5632 5631 5630 5628 5627 5625 5623 5622 5621 5620 5620 5619
5618 5617 5617 5616 5613 5617 5619 5615 5612 5610 5610 5615 5619 5616 5613 5611 5609 5608 5610 5611 5611 5609 5606 5604 5605 5605 5604 5603 5603 5601 5601 5602 5602 5602 5605 5606 5604 5602 5602 5602 5601 5602 5602 5603 5605 5607 5608 5610 5612 5614 5617 5620 5623 5624 5625 5625 5624 5624 5625 5626 5628 5629 5630 5630 5630 5629 5630 5630 5630 5630 5629 5628 5628 5627 5626 5625 5624 5622 5620 5619 5617 5616 5615 5614 5614 5612
5613 5612 5611 5610 5608 5609 5612 5609 5603 5602 5605 5610 5611 5607 5603 5604 5603 5602 5602 5603 5603 5602 5599 5597 5596 5597 5596 5595 5594 5593 5592 5594 5596 5598 5599 5598 5595 5592 5592 5592 5593 5593 5592 5593 5596 5597 5598 5600 5603 5606 5609 5611 5613 5616 5617 5616 5617 5619 5619 5621 5622 5623 5624 5624 5624 5624 5625 5625 5625 5624 5624 5623 5622 5621 5620 5619 5617 5616 5614 5612 5611 5610 5608 5608 5607 5605
5607 5605 5604 5604 5603 5603 5604 5601 5596 5595 5599 5602 5601 5598 5596 5596 5596 5594 5594 5596 5597 5594 5591 5590 5589 5589 5589 5587 5587 5586 5585 5585 5588 5591 5591 5589 5586 5583 5582 5584 5586 5585 5585 5586 5588 5589 5592 5593 5594 5597 5601 5603 5606 5608 5608 5608 5611 5613 5613 5614 5616 5617 5618 5618 5618 5619 5620 5620 5620 5619 5618 5617 5616 5615 5614 5613 5611 5609 5608 5606 5605 5603 5602 5601 5600 5598
5601 5600 5599 5598 5597 5596 5595 5593 5590 5589 5592 5596 5595 5592 5590 5589 5588 5587 5586 5588 5589 5586 5583 5582 5582 5582 5581 5581 5580 5580 5578 5577 5580 5583 5583 5580 5577 5576 5577 5578 5578 5578 5578 5579 5580 5582 5584 5585 5587 5590 5593 5595 5597 5598 5599 5602 5607 5609 5608 5607 5609 5611 5612 5612 5612 5613 5614 5615 5615 5614 5612 5611 5610 5609 5608 5606 5605 5603 5601 5600 5598 5596 5595 5594 5592 5590
5593 5592 5593 5591 5591 5591 5588 5586 5585 5582 5584 5590 5589 5584 5583 5583 5581 5579 5578 5579 5581 5580 5576 5575 5575 5574 5574 5573 5573 5573 5571 5570 5572 5575 5574 5571 5569 5571 5572 5571 5571 5571 5571 5572 5573 5575 5577 5578 5581 5585 5587 5588 5588 5589 5594 5599 5602 5603 5603 5603 5604 5605 5606 5606 5607 5608 5608 5609 5610 5608 5607 5606 5605 5604 5602 5600 5599 5597 5595 5593 5592 5590 5588 5586 5584 5582
5589 5588 5588 5586 5585 5586 5583 5580 5579 5577 5578 5583 5582 5576 5576 5577 5575 5573 5571 5570 5572 5572 5569 5568 5568 5566 5566 5566 5567 5566 5564 5564 5566 5568 5566 5564 5565 5565 5565 5565 5565 5565 5564 5565 5567 5569 5571 5573 5575 5578 5580 5581 5581 5586 5591 5594 5594 5596 5598 5598 5599 5599 5600 5601 5602 5602 5603 5604 5603 5602 5601 5600 5599 5598 5596 5595 5593 5591 5589 5587 5585 5584 5582 5579 5576 5575
5587 5585 5584 5581 5579 5580 5578 5576 5574 5573 5574 5577 5575 5570 5569 5570 5569 5567 5565 5563 5565 5564 5561 5561 5560 5559 5560 5560 5560 5560 5559 5558 5560 5560 5558 5558 5559 5558 5559 5560 5559 5559 5559 5559 5561 5564 5565 5566 5568 5570 5573 5575 5579 5583 5586 5586 5588 5591 5593 5593 5594 5594 5595 5596 5596 5598 5599 5598 5597 5596 5595 5595 5594 5593 5591 5589 5587 5585 5583 5581 5579 5577 5575 5572 5569 5568
5580 5579 5579 5577 5575 5574 5573 5571 5570 5569 5568 5569 5568 5565 5564 5563 5562 5560 5559 5558 5558 5556 5554 5554 5554 5553 5552 5553 5553 5553 5552 5552 5551 5552 5552 5552 5552 5553 5554 5554 5554 5554 5554 5554 5557 5560 5560 5561 5564 5567 5569 5572 5576 5578 5579 5580 5583 5586 5587 5588 5588 5589 5590 5591 5592 5594 5593 5591 5590 5590 5590 5589 5588 5587 5585 5583 5581 5579 5577 5575 5573 5571 5568 5565 5563 5561
5573 5572 5572 5571 5570 5569 5568 5566 5564 5563 5563 5562 5562 5560 5559 5557 5555 5554 5553 5552 5550 5549 5548 5548 5548 5547 5547 5547 5547 5546 5546 5546 5545 5545 5545 5545 5546 5548 5549 5549 5549 5549 5549 5550 5553 5554 5554 5557 5561 5565 5566 5567 5569 5571 5573 5575 5578 5580 5581 5582 5582 5583 5585 5587 5588 5588 5586 5585 5585 5585 5584 5584 5583 5581 5580 5578 5576 5574 5572 5569 5566 5564 5562 5559 5557 5555
5566 5565 5564 5564 5563 5562 5561 5560 5558 5557 5556 5556 5555 5553 5551 5551 5549 5547 5546 5545 5544 5543 5542 5541 5542 5542 5541 5542 5542 5541 5541 5541 5541 5541 5540 5539 5540 5542 5544 5544 5545 5545 5546 5546 5548 5549 5551 5553 5557 5559 5561 5562 5563 5566 5568 5571 5573 5574 5575 5575 5576 5578 5582 5583 5583 5582 5580 5580 5580 5579 5578 5578 5577 5576 5574 5573 5570 5568 5566 5563 5560 5558 5556 5553 5551 5549
5560 5558 5556 5556 5556 5554 5552 5552 5552 5551 5549 5548 5548 5547 5544 5543 5542 5540 5539 5539 5539 5538 5537 5536 5537 5536 5536 5536 5536 5536 5536 5537 5537 5537 5535 5535 5536 5538 5538 5539 5541 5542 5542 5543 5544 5546 5547 5548 5550 5553 5555 5556 5558 5561 5563 5566 5567 5568 5569 5570 5572 5575 5578 5578 5576 5576 5576 5575 5575 5574 5573 5573 5572 5570 5569 5567 5565 5563 5560 5557 5555 5553 5550 5548 5545 5543
5554 5553 5550 5548 5547 5546 5545 5545 5546 5546 5544 5542 5541 5541 5539 5536 5535 5535 5534 5533 5534 5533 5532 5532 5532 5532 5532 5531 5531 5531 5531 5532 5533 5532 5531 5531 5533 5534 5534 5535 5537 5538 5539 5540 5541 5542 5542 5543 5545 5548 5550 5552 5554 5557 5559 5560 5562 5563 5564 5567 5570 5573 5574 5572 5571 5571 5571 5571 5570 5569 5568 5568 5567 5565 5563 5561 5559 5557 5554 5552 5550 5547 5545 5542 5539 5536
5546 5544 5541 5540 5539 5538 5537 5539 5539 5538 5537 5536 5534 5534 5532 5529 5529 5530 5529 5528 5528 5527 5526 5526 5526 5527 5528 5527 5527 5527 5527 5528 5528 5528 5527 5528 5529 5530 5530 5531 5533 5535 5536 5536 5537 5538 5538 5540 5543 5545 5547 5549 5550 5552 5554 5556 5557 5558 5561 5565 5568 5569 5568 5568 5567 5567 5566 5566 5565 5565 5564 5563 5561 5559 5557 5555 5553 5551 5549 5547 5544 5542 5539 5536 5533 5530
5539 5535 5533 5533 5533 5529 5529 5533 5534 5530 5529 5529 5528 5528 5526 5523 5524 5526 5525 5523 5523 5522 5521 5521 5521 5523 5524 5524 5523 5523 5523 5523 5524 5524 5524 5525 5526 5526 5527 5529 5531 5532 5533 5533 5533 5535 5537 5539 5541 5543 5545 5546 5547 5548 5551 5552 5553 5556 5560 5563 5564 5564 5564 5563 5563 5563 5562 5562 5561 5560 5560 5558 5556 5554 5552 5550 5548 5546 5544 5542 5539 5536 5533 5530 5527 5524
5532 5528 5526 5526 5525 5522 5522 5525 5526 5523 5522 5523 5522 5521 5520 5519 5520 5521 5520 5519 5519 5518 5517 5517 5517 5518 5519 5520 5519 5519 5519 5519 5520 5520 5520 5522 5522 5523 5525 5527 5530 5530 5531 5531 5532 5533 5536 5537 5538 5540 5542 5543 5544 5546 5548 5549 5551 5554 5558 5560 5560 5560 5560 5559 5559 5559 5559 5558 5556 5555 5555 5553 5551 5549 5547 5545 5543 5541 5539 5537 5534 5531 5527 5524 5521 5518
5523 5521 5520 5519 5517 5516 5516 5517 5517 5516 5516 5517 5516 5515 5516 5516 5516 5516 5516 5516 5516 5515 5514 5514 5514 5515 5516 5516 5516 5515 5515 5516 5516 5516 5517 5519 5520 5521 5523 5526 5528 5529 5529 5529 5530 5531 5533 5534 5536 5538 5540 5541 5542 5544 5546 5547 5549 5553 5555 5556 5556 5556 5556 5556 5556 5555 5555 5554 5552 5550 5549 5548 5546 5544 5542 5541 5539 5537 5535 5532 5529 5525 5521 5518 5515 5512
5515 5514 5514 5512 5509 5510 5511 5511 5510 5508 5509 5511 5511 5510 5511 5511 5511 5512 5512 5512 5512 5511 5510 5511 5511 5512 5512 5513 5512 5512 5512 5512 5513 5514 5514 5516 5517 5519 5521 5524 5526 5526 5527 5527 5527 5528 5530 5532 5534 5536 5538 5539 5540 5542 5544 5545 5548 5551 5552 5552 5553 5552 5552 5552 5552 5551 5550 5549 5547 5546 5545 5543 5542 5540 5538 5537 5535 5532 5530 5527 5524 5520 5516 5512 5509 5506
5508 5507 5507 5505 5503 5505 5506 5505 5504 5503 5503 5505 5505 5505 5506 5507 5507 5508 5508 5508 5507 5507 5507 5508 5508 5509 5510 5509 5509 5509 5509 5510 5511 5511 5512 5514 5516 5517 5519 5521 5522 5523 5524 5525 5526 5527 5529 5530 5532 5534 5536 5537 5539 5541 5542 5543 5546 5548 5548 5549 5549 5549 5549 5549 5548 5547 5546 5545 5543 5542 5541 5539 5538 5536 5535 5533 5530 5528 5525 5522 5519 5516 5512 5508 5504 5502